Temperature
18 18 18 18 18 18 17 17 17 17 17 17 17 17 17 17 17 17 17 17 17 17 17 17 17 16 16 16 16 16 16 16 16 16 16 16 16 15 15 15 15 15 15
18 18 18 18 18 18 17 17 17 17 17 17 17 17 17 17 17 17 17 17 17 17 17 17 17 16 16 16 16 16 16 16 16 16 16 16 15 15 15 15 15 15 15
18 18 18 18 18 17 17 17 17 17 17 17 17 17 17 17 17 17 17 17 17 17 17 16 16 16 16 16 16 16 16 16 16 16 16 15 15 15 15 15 15 15 15
18 18 18 18 17 17 17 17 17 17 17 17 17 17 17 17 17 17 17 17 17 17 17 16 16 16 16 16 16 16 16 16 16 16 15 15 15 15 15 15 15 15 15
18 18 18 17 17 17 17 17 17 17 17 17 17 17 17 17 17 17 17 17 17 16 16 16 16 16 16 16 16 16 16 16 16 15 15 15 15 15 15 15 15 15 15
17 17 17 17 17 17 17 17 17 17 17 17 17 17 17 17 17 17 17 17 16 16 16 16 16 16 16 16 16 16 15 15 15 15 15 15 15 15 15 15 15 15 15
18 17 17 17 17 17 17 17 17 17 17 17 17 17 17 17 17 17 17 17 17 16 16 16 16 16 16 16 16 15 15 15 15 15 15 15 15 15 15 15 15 15 15
17 17 17 17 17 17 17 17 17 17 17 17 17 17 17 17 17 17 17 17 17 16 16 16 16 16 16 16 16 16 15 15 15 15 15 15 15 15 15 15 15 15 15
17 17 17 17 17 17 17 17 17 17 17 17 17 17 17 17 17 17 17 17 17 17 16 16 16 16 16 16 16 16 15 15 15 15 15 15 15 15 15 15 15 15 15
17 17 17 17 17 17 17 17 17 17 17 17 17 17 17 17 17 17 17 17 17 17 17 16 16 16 16 16 16 15 15 15 15 15 15 15 15 15 15 14 14 14 14
17 17 17 17 17 17 17 17 17 17 17 17 17 17 17 17 17 17 17 17 17 17 17 16 16 16 16 16 16 15 15 15 15 15 15 15 15 15 14 14 14 14 14
17 17 17 17 17 17 17 17 17 17 17 17 17 17 17 17 17 17 17 17 17 17 17 16 16 16 16 16 16 15 15 15 15 15 15 15 15 15 14 14 14 14 14
17 17 17 17 17 17 17 16 16 16 16 16 16 17 17 17 17 17 17 17 17 17 17 17 16 16 16 16 16 16 15 15 15 15 15 15 15 14 14 14 14 14 14
17 17 17 17 17 17 17 16 16 16 16 16 16 16 16 16 17 17 17 17 17 17 17 17 17 16 16 16 16 16 15 15 15 15 15 15 14 14 14 14 14 14 14
17 17 17 17 17 17 17 16 16 16 16 16 16 16 16 16 16 16 17 17 17 17 17 17 17 17 16 16 16 16 16 15 15 15 15 15 14 14 14 14 14 14 14
17 17 17 17 17 17 16 16 16 16 16 16 16 16 16 16 16 16 16 16 16 16 16 16 17 16 16 16 16 16 16 15 15 15 15 15 15 15 14 14 14 14 14
17 17 17 17 17 16 16 16 16 16 16 16 16 16 16 16 16 16 16 16 16 16 16 16 16 16 16 16 16 16 16 15 15 15 15 15 15 15 15 14 14 14 14
17 17 17 17 17 16 16 16 16 16 16 16 16 16 16 16 16 16 16 16 16 16 16 16 16 16 16 16 16 16 16 16 15 15 15 15 15 15 15 14 14 14 14
17 17 17 17 17 16 16 16 16 16 16 16 16 16 16 16 16 16 16 16 16 16 16 16 16 16 16 16 16 16 16 16 15 15 15 15 15 15 14 14 14 14 14
17 17 17 17 16 16 16 16 16 16 16 16 16 16 16 15 15 15 15 15 15 15 15 15 15 15 15 15 15 15 15 15 15 15 15 15 15 15 14 14 14 14 14
17 16 16 16 16 16 16 16 16 16 16 15 15 15 15 15 15 15 15 15 15 15 15 15 15 15 15 15 15 15 15 15 15 15 15 15 15 14 14 14 14 14 14
16 16 16 16 16 16 16 16 16 16 16 15 15 15 15 15 15 15 15 15 15 15 15 15 15 15 15 15 15 15 15 15 15 15 15 15 14 14 14 14 14 13 13
16 16 16 16 16 16 16 16 16 15 15 15 15 15 15 15 15 15 15 15 15 15 15 15 15 15 15 15 14 14 14 14 14 14 14 14 14 14 14 13 13 13 13
16 16 16 16 16 16 16 16 15 15 15 15 15 15 15 15 15 15 15 15 15 15 15 15 15 15 14 14 14 14 14 14 14 14 13 13 13 13 13 13 13 12 12
17 16 16 16 16 16 16 16 15 15 15 15 15 15 15 15 15 14 14 14 14 14 14 14 14 14 14 14 14 13 13 13 13 13 13 13 13 13 13 13 12 12 12
17 16 16 16 16 16 16 16 15 15 15 15 15 15 15 15 14 14 14 14 14 14 14 14 14 14 13 13 13 13 13 13 12 12 12 12 12 12 11 12 12 11 11
Wind_Speed
4 4 4 5 6 6 5 5 5 5 5 6 7 8 7 7 7 6 6 8 8 9 9 9 8 9 8 8 8 7 7 7 7 7 7 7 7 7 7 6 6 6 6
6 4 4 4 4 5 5 5 5 4 4 4 5 6 6 7 7 6 5 6 7 8 8 8 7 8 8 7 7 7 6 6 7 6 6 6 6 6 6 6 6 6 6
8 6 4 3 4 5 6 6 5 4 4 3 4 4 5 6 6 6 5 5 5 6 7 7 6 7 7 7 7 7 6 6 7 7 6 6 6 6 6 5 5 5 6
10 7 4 4 5 5 5 4 3 3 3 3 3 2 3 4 5 5 5 4 4 4 5 6 6 6 7 7 7 7 7 6 7 7 7 7 7 7 6 6 6 6 6
11 8 5 4 6 5 3 4 2 2 3 3 3 2 2 2 2 3 3 4 4 4 4 5 6 6 7 7 7 7 7 7 7 7 7 7 7 7 7 7 7 7 7
12 9 6 5 6 4 3 3 3 3 2 3 3 3 2 1 1 1 3 3 4 5 5 4 5 5 6 7 7 7 7 7 8 7 7 7 7 7 7 7 8 8 8
12 10 6 6 6 5 5 5 3 3 2 2 3 3 2 2 0 1 2 3 4 5 5 5 5 5 4 5 6 6 6 7 7 7 7 7 7 7 7 7 7 7 8
12 11 8 7 6 5 5 5 4 3 2 2 3 3 1 2 1 1 2 3 4 5 5 6 6 6 5 5 5 6 6 6 6 6 7 7 7 7 7 7 7 7 7
12 11 10 8 7 6 6 6 6 6 4 2 1 3 3 3 1 1 1 2 3 3 4 5 7 7 7 7 6 6 7 7 7 6 7 7 7 7 7 7 7 7 8
10 11 11 10 8 6 6 6 5 4 5 4 1 1 2 3 3 1 1 1 2 4 4 4 6 7 8 8 8 8 8 8 7 7 7 7 8 8 8 8 7 8 8
8 10 10 9 8 7 7 7 6 5 4 5 4 2 2 1 1 2 1 1 1 2 3 4 5 6 7 8 8 9 9 9 8 8 7 7 7 7 7 7 8 8 8
6 7 9 8 8 7 7 7 6 7 5 5 4 3 3 3 3 3 3 2 2 1 1 3 4 6 7 9 10 10 11 10 10 9 9 8 8 8 8 8 8 8 9
6 8 8 7 7 7 8 7 7 7 7 6 6 4 4 3 3 4 3 2 1 1 2 2 4 6 7 9 10 12 11 11 11 11 11 10 10 10 10 10 10 10 10
7 8 9 9 9 9 9 8 6 7 6 6 7 5 4 4 4 4 4 4 2 1 1 3 2 5 7 8 11 11 10 12 13 13 12 12 12 12 12 12 12 12 12
7 8 9 9 9 9 9 8 6 7 7 7 6 6 4 3 4 4 3 4 5 3 3 3 3 2 5 8 9 9 10 12 13 13 13 13 13 13 14 14 14 14 14
7 9 9 9 9 9 9 8 6 6 7 6 5 6 5 3 3 3 4 3 3 4 4 3 3 2 3 5 7 8 9 11 12 13 13 14 14 14 14 14 15 15 15
9 9 9 9 9 9 9 8 8 8 8 7 6 7 6 5 4 4 3 4 3 4 4 3 2 2 2 3 3 5 7 8 9 12 13 13 14 14 14 14 14 15 15
9 9 9 9 10 9 9 10 9 9 9 9 8 8 7 6 6 5 4 5 4 4 4 4 2 2 3 2 2 3 4 6 7 10 11 11 12 12 13 13 14 14 14
9 9 9 10 10 10 10 10 9 9 10 10 9 9 8 8 7 5 6 5 4 4 3 3 3 2 2 1 1 2 3 3 5 6 7 9 9 10 10 11 11 12 12
9 9 9 10 10 10 10 10 10 9 9 9 9 9 9 9 9 8 7 6 5 4 3 3 2 2 2 1 1 2 3 3 3 4 5 6 6 7 8 8 9 10 10
9 9 8 9 9 9 9 10 10 10 9 8 8 8 9 10 11 9 7 7 7 5 4 3 3 2 2 2 3 3 3 3 3 3 3 3 4 5 6 7 8 9 9
7 8 9 9 9 9 11 14 11 9 9 9 9 8 8 9 10 11 11 10 10 8 7 5 4 5 5 5 3 3 3 2 4 2 3 4 3 5 6 7 9 9 9
7 8 8 9 9 10 12 14 15 10 9 9 8 7 7 7 8 7 9 10 10 11 10 7 7 7 6 6 5 4 5 5 5 2 2 4 3 5 6 8 10 10 10
8 7 8 8 8 9 12 13 14 10 8 8 8 8 8 7 7 8 7 7 7 8 9 8 8 8 7 6 6 5 4 4 4 3 3 4 4 4 5 7 10 11 11
7 7 6 8 8 8 11 12 11 7 7 8 7 8 8 8 9 10 8 7 6 6 8 10 11 9 8 7 6 3 3 3 4 4 4 4 3 4 4 5 7 9 10
7 7 6 6 7 7 9 12 12 7 7 6 5 6 8 9 9 10 8 7 8 7 5 4 4 5 5 5 7 7 5 5 4 4 3 4 3 2 4 3 4 5 7
Wind_Direction
141 137 131 125 123 125 121 113 113 115 114 121 136 143 146 147 144 144 154 159 158 157 156 157 158 157 158 159 157 158 157 156 154 157 159 159 160 162 164 162 159 156 156
155 149 141 135 136 138 133 126 124 123 117 120 132 141 146 149 150 152 157 167 170 169 169 169 170 170 172 175 173 174 174 174 172 172 172 172 172 176 181 181 179 178 180
167 161 153 153 155 144 131 118 109 108 114 114 115 128 138 146 153 156 158 166 177 182 183 185 186 185 186 190 189 189 189 191 189 189 193 192 189 191 196 197 193 195 199
175 166 164 169 162 147 135 122 115 108 111 120 119 121 131 142 155 162 165 176 184 189 197 203 201 201 202 202 201 200 199 202 202 202 204 208 208 208 210 211 211 215 216
179 173 173 171 159 144 139 145 123 124 135 135 128 108 116 142 155 172 181 192 195 196 204 217 218 217 216 214 212 209 205 205 207 210 210 214 217 219 221 223 222 224 226
180 176 175 169 159 146 149 142 127 100 113 133 119 90 58 65 134 185 207 209 213 214 215 221 223 225 227 226 223 221 215 211 211 213 213 214 215 218 222 225 227 229 232
180 177 177 166 167 167 164 151 129 116 107 115 95 68 32 35 43 231 225 225 230 227 219 221 221 222 231 230 228 226 220 210 209 213 215 214 214 216 219 223 230 234 236
182 184 176 175 173 163 158 159 144 133 126 134 128 114 60 352 330 259 224 226 234 232 227 225 220 220 223 224 227 227 224 215 209 212 215 213 215 218 222 226 230 236 241
187 183 181 177 175 171 176 178 162 152 152 151 155 147 152 209 273 323 267 235 227 225 230 225 223 222 222 221 225 227 226 224 219 217 217 217 219 222 227 233 236 241 246
186 185 182 180 176 176 177 182 174 164 152 160 151 112 136 149 152 236 316 277 235 228 229 226 224 223 221 221 227 228 231 231 228 227 227 226 226 228 232 240 246 249 252
188 186 183 182 180 182 182 177 170 170 165 163 163 152 127 95 121 152 223 288 290 249 231 224 226 227 223 223 226 229 232 235 234 234 236 236 235 233 237 245 251 257 260
188 188 185 185 185 184 183 182 177 175 178 167 167 164 161 164 179 168 188 226 248 282 266 234 228 228 225 224 228 229 231 233 234 237 241 244 246 244 246 250 256 261 267
192 194 189 187 187 188 186 180 178 182 180 178 180 185 185 186 163 159 159 179 219 287 302 260 235 230 228 225 231 231 232 232 235 238 243 247 251 252 253 255 258 263 267
193 188 190 191 191 188 187 181 183 186 184 188 191 184 185 191 177 169 163 156 162 269 287 263 259 232 231 227 233 232 234 235 237 241 245 249 253 255 258 260 261 264 266
189 188 192 193 192 189 184 177 184 186 182 190 190 187 186 190 186 186 173 168 163 190 238 250 249 244 234 231 234 228 233 239 241 244 248 253 257 260 262 264 265 265 266
189 185 189 191 191 189 185 182 183 185 182 187 185 184 190 189 184 185 185 186 178 179 214 235 238 250 244 240 233 228 237 245 248 249 253 257 261 264 265 267 267 267 267
188 190 190 188 190 190 187 187 191 185 188 190 189 191 197 186 185 187 178 177 182 176 204 242 241 251 241 244 235 233 243 246 252 253 255 258 262 265 267 269 269 269 269
191 192 190 190 195 194 191 192 194 192 193 195 196 192 197 189 191 190 184 189 191 190 194 221 235 238 242 245 241 240 245 245 249 258 256 258 261 265 269 270 271 271 271
190 190 191 195 196 194 192 195 195 195 198 200 196 195 196 186 194 193 193 196 196 190 189 202 229 229 250 258 251 252 253 256 259 260 254 254 259 267 271 272 272 273 273
190 192 197 200 198 194 193 194 194 197 200 201 199 199 197 194 198 195 196 198 190 184 181 195 222 235 244 248 231 242 258 251 262 268 260 262 267 275 273 272 272 275 276
196 193 194 200 195 193 198 195 195 198 198 202 203 204 206 204 203 197 198 197 188 189 189 199 216 223 231 223 226 220 238 260 263 249 262 268 269 275 275 274 273 272 272
193 189 194 196 196 204 199 193 192 197 198 201 207 209 213 210 211 209 208 199 189 191 197 199 211 221 231 227 224 217 222 242 266 226 232 262 253 265 270 268 269 269 269
187 191 197 196 201 206 196 194 193 192 197 203 206 206 211 212 202 205 211 211 210 211 202 198 214 225 229 222 209 222 222 228 243 243 220 265 253 261 267 268 268 265 265
194 200 200 199 203 209 198 195 192 193 198 203 204 204 207 209 205 200 205 210 219 225 222 218 223 230 229 217 207 217 225 233 250 249 213 254 263 264 275 274 271 265 268
197 202 199 199 202 208 196 193 186 190 202 211 212 210 209 214 214 202 200 213 228 242 240 225 227 233 233 224 200 189 201 226 258 253 204 230 257 271 275 271 270 266 269
199 197 201 203 202 204 195 191 185 190 201 210 213 217 213 214 215 203 204 210 229 241 234 225 224 240 241 235 208 206 213 228 250 260 213 214 248 265 280 263 268 276 278
Height
1552 1554 1557 1559 1561 1563 1564 1566 1568 1570 1571 1572 1574 1575 1576 1577 1578 1579 1580 1581 1582 1583 1584 1585 1586 1587 1588 1589 1590 1591 1592 1593 1594 1595 1596 1596 1597 1598 1599 1599 1600 1601 1601
1553 1556 1558 1560 1562 1564 1566 1567 1569 1571 1572 1574 1575 1576 1577 1578 1579 1580 1581 1582 1583 1584 1585 1586 1587 1588 1589 1590 1591 1592 1593 1594 1594 1595 1596 1596 1597 1598 1599 1599 1600 1601 1601
1554 1556 1558 1561 1563 1565 1566 1568 1570 1571 1573 1574 1576 1577 1578 1579 1580 1581 1582 1583 1584 1585 1585 1586 1587 1588 1589 1590 1591 1592 1592 1593 1594 1595 1596 1596 1597 1598 1598 1599 1600 1600 1601
1554 1556 1559 1561 1563 1565 1567 1569 1570 1572 1573 1575 1576 1577 1579 1580 1581 1582 1583 1584 1584 1585 1586 1587 1588 1588 1589 1590 1590 1591 1592 1593 1594 1594 1595 1596 1596 1597 1597 1598 1599 1599 1600
1554 1556 1559 1561 1563 1565 1567 1569 1570 1572 1574 1575 1577 1578 1579 1580 1581 1582 1583 1584 1585 1586 1586 1587 1588 1588 1589 1590 1590 1591 1592 1592 1593 1593 1594 1595 1595 1596 1596 1597 1598 1598 1599
1553 1556 1558 1560 1563 1565 1567 1569 1570 1572 1574 1575 1577 1578 1579 1580 1581 1582 1583 1584 1585 1586 1586 1587 1587 1588 1589 1589 1590 1590 1591 1591 1592 1592 1593 1593 1594 1594 1595 1596 1596 1597 1597
1552 1554 1557 1559 1562 1564 1566 1568 1570 1571 1573 1575 1576 1578 1579 1580 1581 1582 1583 1584 1584 1585 1586 1586 1587 1587 1588 1589 1589 1589 1590 1590 1591 1591 1592 1592 1592 1593 1593 1594 1594 1595 1595
1550 1553 1555 1558 1560 1563 1565 1567 1569 1570 1572 1574 1576 1577 1578 1580 1580 1581 1582 1583 1583 1584 1585 1585 1586 1587 1587 1588 1588 1589 1589 1589 1589 1590 1590 1591 1591 1591 1592 1592 1592 1593 1593
1548 1551 1553 1556 1559 1561 1563 1565 1567 1569 1571 1573 1574 1576 1577 1577 1579 1580 1580 1581 1582 1583 1584 1584 1585 1586 1586 1587 1587 1587 1588 1588 1588 1588 1589 1589 1589 1589 1590 1590 1590 1590 1590
1545 1548 1551 1554 1556 1559 1561 1563 1565 1567 1569 1571 1573 1574 1576 1576 1577 1578 1579 1580 1581 1582 1582 1583 1584 1584 1585 1585 1586 1586 1586 1586 1586 1586 1586 1587 1587 1587 1587 1588 1588 1588 1588
1542 1546 1549 1551 1554 1556 1559 1561 1563 1565 1567 1569 1571 1572 1573 1575 1576 1577 1577 1578 1579 1580 1581 1581 1582 1583 1583 1583 1584 1584 1584 1584 1584 1584 1585 1585 1585 1585 1585 1585 1585 1585 1585
1539 1542 1545 1548 1550 1553 1556 1558 1560 1562 1564 1567 1568 1570 1571 1572 1573 1575 1575 1576 1577 1578 1579 1579 1580 1581 1581 1582 1582 1582 1583 1583 1583 1583 1583 1583 1583 1583 1583 1583 1583 1582 1582
1534 1538 1541 1544 1547 1550 1552 1555 1557 1559 1562 1564 1566 1567 1569 1570 1571 1572 1573 1574 1575 1576 1577 1577 1578 1579 1579 1579 1580 1580 1581 1581 1581 1581 1581 1581 1581 1581 1580 1580 1580 1580 1579
1531 1535 1538 1541 1543 1546 1549 1551 1554 1556 1559 1561 1563 1564 1566 1567 1569 1570 1571 1572 1573 1574 1574 1575 1576 1576 1577 1577 1578 1578 1579 1579 1579 1579 1579 1579 1578 1578 1578 1578 1577 1577 1576
1527 1531 1534 1537 1540 1542 1545 1547 1550 1553 1555 1557 1559 1561 1563 1564 1566 1567 1569 1570 1571 1571 1572 1573 1573 1574 1574 1575 1575 1576 1576 1577 1577 1577 1577 1576 1576 1576 1575 1575 1574 1574 1573
1523 1526 1530 1533 1535 1538 1541 1543 1546 1549 1551 1554 1556 1558 1560 1561 1563 1564 1566 1567 1568 1569 1569 1570 1571 1571 1572 1573 1573 1573 1574 1574 1574 1574 1574 1574 1573 1573 1572 1572 1571 1571 1570
1519 1522 1525 1528 1531 1534 1537 1540 1542 1545 1547 1550 1552 1554 1556 1558 1559 1561 1562 1563 1565 1566 1566 1567 1567 1568 1569 1569 1570 1570 1570 1571 1571 1571 1571 1570 1570 1569 1569 1568 1567 1567 1566
1514 1518 1521 1524 1527 1530 1533 1536 1538 1541 1543 1545 1548 1550 1552 1554 1556 1557 1559 1560 1561 1562 1563 1563 1564 1565 1565 1566 1566 1567 1567 1567 1567 1567 1567 1567 1566 1565 1565 1564 1563 1562 1561
1509 1513 1516 1519 1522 1525 1528 1531 1534 1537 1539 1541 1544 1546 1548 1550 1552 1553 1555 1556 1557 1558 1559 1560 1560 1561 1561 1562 1562 1563 1563 1563 1563 1563 1563 1562 1562 1561 1560 1559 1558 1557 1556
1505 1509 1512 1515 1518 1521 1524 1527 1530 1532 1535 1537 1540 1542 1544 1546 1547 1549 1551 1552 1554 1554 1555 1556 1556 1557 1557 1558 1558 1558 1559 1559 1559 1559 1558 1558 1557 1556 1555 1554 1553 1552 1551
1502 1505 1508 1511 1514 1516 1519 1522 1525 1528 1530 1533 1535 1537 1540 1542 1543 1545 1547 1548 1549 1550 1551 1551 1552 1553 1553 1553 1554 1554 1554 1554 1554 1554 1553 1553 1552 1551 1549 1548 1547 1546 1545
1498 1501 1503 1507 1509 1512 1515 1518 1521 1523 1526 1528 1531 1533 1535 1537 1539 1541 1542 1544 1545 1546 1546 1547 1548 1548 1548 1549 1549 1549 1549 1549 1548 1549 1547 1547 1546 1545 1544 1543 1541 1540 1539
1495 1497 1500 1503 1506 1508 1511 1514 1517 1519 1521 1524 1526 1529 1531 1532 1534 1536 1538 1539 1540 1541 1542 1543 1543 1543 1544 1544 1545 1544 1544 1543 1543 1542 1541 1540 1540 1539 1538 1536 1535 1534 1533
1492 1494 1497 1500 1502 1504 1507 1510 1512 1515 1517 1519 1521 1524 1526 1528 1530 1531 1533 1534 1535 1536 1537 1538 1538 1538 1539 1539 1539 1539 1539 1538 1537 1537 1536 1534 1533 1533 1532 1530 1529 1528 1527
1488 1491 1494 1496 1498 1501 1503 1506 1508 1510 1512 1514 1517 1519 1521 1523 1525 1527 1528 1529 1530 1531 1532 1532 1533 1533 1534 1534 1534 1534 1533 1533 1531 1531 1530 1529 1527 1526 1524 1524 1523 1522 1520
1485 1487 1490 1492 1494 1496 1499 1502 1504 1506 1507 1509 1512 1514 1516 1518 1520 1522 1523 1524 1525 1526 1527 1527 1528 1528 1528 1528 1528 1528 1528 1527 1525 1524 1524 1523 1521 1520 1517 1516 1516 1515 1513